Location: Katowice
(50.2611°N, 19.0242°E)
Time: 17:13:46
(UTC+02:00)

Vanguard 2 Rocket - All Passes

Search period start: 20 August 2019 00:00
Search period end: 30 August 2019 00:00
Orbit: 553 x 3327 km, 32.9° (Epoch: 20 August)

Date Brightness Start Highest point End Pass type
(mag) Time Alt. Az. Time Alt. Az. Time Alt. Az.
20 Aug - 03:38:59 10° SSW 03:50:30 30° SSE 04:05:36 10° E visible
20 Aug - 05:50:06 10° SW 06:05:10 44° S 06:23:20 10° ESE daylight
20 Aug - 08:04:17 10° WSW 08:21:06 41° SSW 08:38:09 10° SE daylight
20 Aug - 10:21:37 10° W 10:36:02 26° SW 10:48:58 10° S daylight
21 Aug - 02:41:10 10° S 02:50:25 22° SE 03:02:31 10° E visible
21 Aug - 04:50:38 10° SW 05:04:06 40° SSE 05:21:38 10° ESE visible
21 Aug - 07:03:41 10° WSW 07:19:44 44° S 07:37:42 10° SE daylight
21 Aug - 09:19:30 10° W 09:35:16 32° SSW 09:50:18 10° SSE daylight
21 Aug - 11:42:04 10° WSW 11:48:48 13° SW 11:55:08 10° SSW daylight
22 Aug - 01:44:47 10° SSE 01:50:49 15° SE 01:58:10 10° ESE visible
22 Aug - 03:51:43 10° SSW 04:03:25 34° SSE 04:19:28 10° E visible
22 Aug - 06:03:35 10° WSW 06:18:24 44° S 06:36:38 10° ESE daylight
22 Aug - 08:18:10 10° W 08:34:12 37° SSW 08:50:48 10° SE daylight
22 Aug - 10:36:48 10° W 10:48:38 19° SW 10:59:44 10° S daylight
23 Aug - 02:53:24 10° SSW 03:03:12 27° SSE 03:16:48 10° E visible
23 Aug - 05:03:59 10° SW 05:17:17 42° S 05:35:04 10° ESE visible
23 Aug - 07:17:27 10° WSW 07:32:57 40° SSW 07:50:34 10° SE daylight
23 Aug - 09:33:59 10° W 09:48:05 26° SW 10:01:54 10° S daylight
24 Aug - 01:55:55 10° S 02:03:28 20° SE 02:13:30 10° E visible
24 Aug - 04:04:51 10° SW 04:16:31 38° SSE 04:33:03 10° ESE visible
24 Aug - 06:17:16 10° WSW 06:31:41 42° S 06:49:43 10° SE daylight
24 Aug - 08:32:19 10° W 08:47:12 31° SSW 09:02:54 10° SSE daylight
24 Aug - 10:54:02 10° WSW 11:01:10 13° SW 11:08:07 10° SSW daylight
25 Aug - 01:00:23 10° SSE 01:04:11 12° SE 01:08:34 10° ESE visible
25 Aug - 03:06:14 10° SSW 03:16:11 32° SSE 03:30:38 10° E visible
25 Aug - 05:17:34 10° WSW 05:30:35 42° S 05:48:17 10° ESE daylight
25 Aug - 07:31:26 10° WSW 07:46:07 36° SSW 08:03:02 10° SE daylight
25 Aug - 09:49:19 10° WSW 10:00:48 19° SW 10:12:20 10° S daylight
26 Aug - 02:08:13 10° SSW 02:16:20 25° SE 02:27:51 10° E visible
26 Aug - 04:18:18 10° SW 04:29:47 40° S 04:46:25 10° ESE visible
26 Aug - 06:31:08 10° WSW 06:44:58 39° SSW 07:02:27 10° SE daylight
26 Aug - 08:46:57 10° W 09:00:07 25° SW 09:14:14 10° S daylight
27 Aug - 01:11:08 10° S 01:16:55 17° SE 01:24:28 10° ESE visible
27 Aug - 03:19:29 10° SW 03:29:22 35° SSE 03:44:12 10° ESE visible
27 Aug - 05:31:20 10° WSW 05:43:56 40° S 06:01:14 10° SE daylight
27 Aug - 07:45:43 10° WSW 07:59:14 30° SSW 08:14:54 10° SSE daylight
27 Aug - 10:06:57 10° WSW 10:13:29 13° SW 10:20:07 10° SSW daylight
28 Aug - 02:21:08 10° SSW 02:29:24 29° SSE 02:41:43 10° ESE visible
28 Aug - 04:31:59 10° WSW 04:43:09 39° S 04:59:33 10° ESE visible
28 Aug - 06:45:14 10° WSW 06:58:15 34° SSW 07:14:43 10° SE daylight
28 Aug - 09:02:31 10° WSW 09:13:00 18° SW 09:24:15 10° S daylight
29 Aug - 01:23:23 10° S 01:29:52 21° SE 01:38:58 10° ESE visible
29 Aug - 03:33:00 10° SW 03:42:42 36° S 03:57:32 10° ESE visible
29 Aug - 05:45:19 10° WSW 05:57:19 36° SSW 06:13:50 10° SE daylight
29 Aug - 08:00:33 10° WSW 08:12:19 23° SSW 08:25:55 10° S daylight
